• In Deutschland
  • Länderverzeichnis
  • Für 7 Tage
  • Wassertemperatur
  • Satellitenkarten
  • Wetterkarte
  • Widgets
  • user-avatar
    Anmelden

    Stündliche Wetter Klagenfurt

    Heute, 23 März, Donnerstag

    Zeit Temperatur Niederschläge Wind Luftdruck Luftfeuchtigkeit
    00:00 +6°C° 0 mm 1 m/S 687 mmHg 98%
    01:00 +7°C° 0 mm 1 m/S 688 mmHg 97%
    02:00 +7°C° 0,2 mm 1 m/S 687 mmHg 97%
    03:00 +6°C° 0,2 mm 1 m/S 687 mmHg 97%
    04:00 +6°C° 0,2 mm 1 m/S 687 mmHg 97%
    05:00 +7°C° 0,1 mm 1 m/S 688 mmHg 97%
    06:00 +7°C° 0,1 mm 1 m/S 688 mmHg 97%
    07:00 +7°C° 0,1 mm 1 m/S 688 mmHg 96%
    08:00 +9°C° 0 mm 1 m/S 688 mmHg 90%
    09:00 +10°C° 0 mm 1 m/S 689 mmHg 84%
    10:00 +10°C° 0 mm 2 m/S 689 mmHg 78%
    11:00 +12°C° 0,1 mm 2 m/S 689 mmHg 74%
    12:00 +13°C° 0,1 mm 2 m/S 689 mmHg 71%
    13:00 +14°C° 0,1 mm 2 m/S 689 mmHg 67%
    14:00 +14°C° 0,1 mm 2 m/S 690 mmHg 67%
    15:00 +14°C° 0,1 mm 2 m/S 690 mmHg 67%
    16:00 +14°C° 0,1 mm 2 m/S 690 mmHg 67%
    17:00 +12°C° 0 mm 2 m/S 689 mmHg 75%
    18:00 +9°C° 0 mm 2 m/S 689 mmHg 84%
    19:00 +8°C° 0 mm 1 m/S 689 mmHg 93%
    20:00 +7°C° 0 mm 1 m/S 690 mmHg 94%
    21:00 +7°C° 0 mm 1 m/S 690 mmHg 95%
    22:00 +7°C° 0 mm 1 m/S 691 mmHg 96%
    23:00 +6°C° 0 mm 1 m/S 691 mmHg 96%

    Morgen, 24 März, Freitag

    Zeit Temperatur Niederschläge Wind Luftdruck Luftfeuchtigkeit
    00:00 +6°C° 0 mm 1 m/S 691 mmHg 96%
    01:00 +6°C° 0 mm 1 m/S 691 mmHg 95%
    02:00 +6°C° 0 mm 1 m/S 691 mmHg 95%
    03:00 +5°C° 0 mm 1 m/S 691 mmHg 95%
    04:00 +5°C° 0 mm 1 m/S 691 mmHg 95%
    05:00 +5°C° 0 mm 1 m/S 692 mmHg 94%
    06:00 +6°C° 0 mm 1 m/S 692 mmHg 92%
    07:00 +6°C° 0 mm 1 m/S 692 mmHg 91%
    08:00 +9°C° 0 mm 1 m/S 693 mmHg 81%
    09:00 +11°C° 0 mm 1 m/S 694 mmHg 72%
    10:00 +13°C° 0 mm 0 m/S 694 mmHg 63%
    11:00 +15°C° 0 mm 1 m/S 695 mmHg 60%
    12:00 +16°C° 0 mm 1 m/S 695 mmHg 57%
    13:00 +18°C° 0 mm 1 m/S 695 mmHg 53%
    14:00 +16°C° 0 mm 1 m/S 695 mmHg 55%
    15:00 +16°C° 0 mm 1 m/S 695 mmHg 56%
    16:00 +16°C° 0 mm 1 m/S 694 mmHg 58%
    17:00 +13°C° 0 mm 1 m/S 694 mmHg 68%
    18:00 +11°C° 0 mm 1 m/S 694 mmHg 78%
    19:00 +9°C° 0 mm 1 m/S 693 mmHg 88%
    20:00 +9°C° 0 mm 1 m/S 694 mmHg 89%
    21:00 +8°C° 0 mm 1 m/S 694 mmHg 90%
    22:00 +8°C° 0 mm 1 m/S 695 mmHg 92%
    23:00 +8°C° 0,1 mm 1 m/S 695 mmHg 92%

    übermorgen, 25 März, Samstag

    Zeit Temperatur Niederschläge Wind Luftdruck Luftfeuchtigkeit
    00:00 +8°C° 0,1 mm 1 m/S 695 mmHg 93%
    01:00 +8°C° 0,1 mm 1 m/S 695 mmHg 94%
    02:00 +8°C° 0 mm 1 m/S 695 mmHg 94%
    03:00 +7°C° 0 mm 1 m/S 695 mmHg 95%
    04:00 +7°C° 0 mm 1 m/S 694 mmHg 96%
    05:00 +7°C° 0 mm 1 m/S 694 mmHg 95%
    06:00 +7°C° 0 mm 1 m/S 694 mmHg 94%
    07:00 +7°C° 0 mm 1 m/S 694 mmHg 93%
    08:00 +8°C° 0 mm 1 m/S 694 mmHg 87%
    09:00 +9°C° 0 mm 1 m/S 694 mmHg 81%
    10:00 +9°C° 0 mm 2 m/S 694 mmHg 75%
    11:00 +10°C° 0 mm 2 m/S 694 mmHg 74%
    12:00 +10°C° 0 mm 2 m/S 694 mmHg 72%
    13:00 +10°C° 0 mm 2 m/S 694 mmHg 70%
    14:00 +10°C° 0 mm 2 m/S 693 mmHg 71%
    15:00 +11°C° 0 mm 1 m/S 693 mmHg 72%
    16:00 +11°C° 0 mm 1 m/S 692 mmHg 72%
    17:00 +10°C° 0 mm 1 m/S 692 mmHg 79%
    18:00 +8°C° 0 mm 1 m/S 691 mmHg 86%
    19:00 +7°C° 0 mm 1 m/S 691 mmHg 92%
    20:00 +7°C° 0 mm 1 m/S 691 mmHg 93%
    21:00 +6°C° 0 mm 1 m/S 690 mmHg 94%
    22:00 +6°C° 0 mm 1 m/S 690 mmHg 95%
    23:00 +5°C° 0 mm 1 m/S 690 mmHg 95%

    26 März, Sonntag

    Zeit Temperatur Niederschläge Wind Luftdruck Luftfeuchtigkeit
    00:00 +5°C° 0 mm 1 m/S 689 mmHg 95%
    01:00 +5°C° 0 mm 1 m/S 688 mmHg 96%
    02:00 +4°C° 0 mm 1 m/S 688 mmHg 96%
    03:00 +4°C° 0 mm 1 m/S 687 mmHg 96%
    04:00 +4°C° 0 mm 1 m/S 687 mmHg 96%
    05:00 +5°C° 0 mm 1 m/S 686 mmHg 95%
    06:00 +5°C° 0 mm 1 m/S 686 mmHg 94%
    07:00 +6°C° 0 mm 1 m/S 686 mmHg 93%
    08:00 +7°C° 0,1 mm 1 m/S 686 mmHg 87%
    09:00 +9°C° 0,1 mm 1 m/S 686 mmHg 82%
    10:00 +10°C° 0,1 mm 1 m/S 687 mmHg 76%
    11:00 +10°C° 0,9 mm 1 m/S 686 mmHg 80%
    12:00 +9°C° 0,9 mm 1 m/S 686 mmHg 84%
    13:00 +9°C° 0,9 mm 1 m/S 685 mmHg 88%
    14:00 +8°C° 2,6 mm 1 m/S 685 mmHg 89%
    15:00 +6°C° 2,6 mm 2 m/S 685 mmHg 90%
    16:00 +6°C° 2,6 mm 2 m/S 685 mmHg 91%
    17:00 +5°C° 1,5 mm 2 m/S 685 mmHg 92%
    18:00 +4°C° 1,5 mm 2 m/S 686 mmHg 93%
    19:00 +3°C° 1,5 mm 2 m/S 686 mmHg 94%
    20:00 +3°C° 0,4 mm 2 m/S 687 mmHg 94%
    21:00 +3°C° 0,4 mm 2 m/S 687 mmHg 94%
    22:00 +2°C° 0,4 mm 2 m/S 688 mmHg 94%
    23:00 +2°C° 0,1 mm 2 m/S 688 mmHg 94%

    27 März, Montag

    Zeit Temperatur Niederschläge Wind Luftdruck Luftfeuchtigkeit
    00:00 +2°C° 0,1 mm 2 m/S 688 mmHg 94%
    01:00 +1°C° 0,1 mm 2 m/S 688 mmHg 93%
    02:00 +1°C° 0,1 mm 2 m/S 689 mmHg 93%
    03:00 -1°C° 0,1 mm 2 m/S 689 mmHg 93%
    04:00 -1°C° 0,1 mm 2 m/S 689 mmHg 92%
    05:00 -1°C° 0 mm 2 m/S 689 mmHg 92%
    06:00 -1°C° 0 mm 2 m/S 689 mmHg 91%
    07:00 -1°C° 0 mm 2 m/S 690 mmHg 90%
    08:00 +1°C° 0 mm 2 m/S 690 mmHg 83%
    09:00 +2°C° 0 mm 2 m/S 690 mmHg 75%
    10:00 +3°C° 0 mm 3 m/S 691 mmHg 68%
    11:00 +3°C° 0 mm 3 m/S 691 mmHg 63%
    12:00 +4°C° 0 mm 3 m/S 691 mmHg 59%
    13:00 +5°C° 0 mm 3 m/S 691 mmHg 54%
    14:00 +4°C° 0,1 mm 3 m/S 690 mmHg 56%
    15:00 +4°C° 0,1 mm 3 m/S 690 mmHg 59%
    16:00 +4°C° 0,1 mm 3 m/S 690 mmHg 61%
    17:00 +3°C° 0,1 mm 2 m/S 690 mmHg 69%
    18:00 +2°C° 0,1 mm 2 m/S 690 mmHg 76%
    19:00 -1°C° 0,1 mm 2 m/S 690 mmHg 84%
    20:00 -1°C° 0 mm 2 m/S 690 mmHg 85%
    21:00 0°C° 0 mm 1 m/S 690 mmHg 87%
    22:00 0°C° 0 mm 1 m/S 690 mmHg 89%
    23:00 0°C° 0,1 mm 1 m/S 690 mmHg 89%

    28 März, Dienstag

    Zeit Temperatur Niederschläge Wind Luftdruck Luftfeuchtigkeit
    00:00 -1°C° 0,1 mm 1 m/S 690 mmHg 88%
    01:00 -1°C° 0,1 mm 1 m/S 690 mmHg 88%
    02:00 -1°C° 0,1 mm 1 m/S 690 mmHg 87%
    03:00 -1°C° 0,1 mm 1 m/S 690 mmHg 86%
    04:00 -1°C° 0,1 mm 1 m/S 690 mmHg 86%
    05:00 -1°C° 0,1 mm 1 m/S 690 mmHg 83%
    06:00 0°C° 0,1 mm 1 m/S 690 mmHg 81%
    07:00 0°C° 0,1 mm 1 m/S 690 mmHg 79%
    08:00 -1°C° 0,2 mm 2 m/S 690 mmHg 74%
    09:00 +2°C° 0,2 mm 2 m/S 691 mmHg 69%
    10:00 +3°C° 0,2 mm 2 m/S 691 mmHg 65%
    11:00 +3°C° 0,2 mm 2 m/S 691 mmHg 65%
    12:00 +4°C° 0,2 mm 2 m/S 691 mmHg 66%
    13:00 +3°C° 0,2 mm 3 m/S 691 mmHg 67%
    14:00 +4°C° 0,1 mm 2 m/S 690 mmHg 68%
    15:00 +5°C° 0,1 mm 2 m/S 690 mmHg 70%
    16:00 +5°C° 0,1 mm 2 m/S 690 mmHg 71%
    17:00 +4°C° 0,1 mm 2 m/S 690 mmHg 77%
    18:00 +3°C° 0,1 mm 1 m/S 690 mmHg 83%
    19:00 +2°C° 0,1 mm 1 m/S 690 mmHg 90%
    20:00 +2°C° 0,1 mm 1 m/S 690 mmHg 90%
    21:00 +2°C° 0,1 mm 1 m/S 691 mmHg 90%
    22:00 +2°C° 0,1 mm 1 m/S 691 mmHg 91%
    23:00 +2°C° 0,1 mm 1 m/S 691 mmHg 91%
    Mehr zeigen